Wind_Speed
56 57 58 60 61 61 62 63 64 64 64 66 66 67 67 68 68 67 67 66 66 65 65 65 65 65 64 64 64 65 65 66 67 67 68 69 69 70
57 58 59 60 60 61 62 63 63 63 62 63 64 64 64 65 65 65 64 63 62 62 61 60 60 59 58 58 57 56 56 57 58 59 61 63 65 66
57 58 59 59 60 61 61 60 60 60 60 60 61 62 62 62 62 61 59 58 57 56 55 54 52 51 49 47 46 46 47 48 49 51 53 56 59 62
57 57 57 57 57 57 57 57 58 59 59 58 58 59 59 58 57 56 54 53 52 49 46 44 42 41 41 41 41 41 42 42 43 45 46 49 52 56
55 55 55 54 54 54 54 55 56 56 56 56 55 55 54 53 51 50 47 45 42 39 37 36 36 37 37 38 38 38 38 39 39 40 41 42 44 48
53 52 51 51 51 52 53 53 53 53 52 51 49 48 47 45 43 41 39 37 35 34 34 33 33 34 34 34 35 35 35 35 36 37 38 39 40 42
50 49 49 50 50 50 51 50 49 48 46 45 42 40 38 36 35 34 33 32 32 33 32 32 32 32 32 32 32 32 32 33 33 34 35 35 36 38
48 48 48 48 48 48 47 45 43 42 39 37 34 32 31 31 30 30 30 30 29 30 31 31 31 30 30 30 30 30 30 30 30 30 31 31 33 35
46 46 47 46 45 44 42 39 37 33 31 29 27 26 26 27 27 27 27 27 28 27 27 27 28 28 28 28 28 27 27 26 26 26 27 27 29 31
44 44 43 42 40 37 34 32 29 28 26 24 24 24 25 25 25 25 25 25 25 25 25 25 25 25 24 24 24 23 23 23 23 23 23 24 25 27
41 39 37 35 31 28 25 24 23 22 21 21 22 22 22 22 23 23 23 23 23 23 24 23 23 22 21 20 19 18 19 19 19 19 20 20 22 23
35 32 29 25 22 20 19 18 17 18 19 19 19 20 20 21 22 22 22 22 22 22 22 21 20 19 18 17 16 15 15 15 15 16 16 17 18 19
27 24 20 16 14 14 14 14 15 16 16 17 17 18 20 21 21 22 21 21 20 19 19 17 16 15 14 13 13 12 12 12 12 12 12 13 14 16
18 15 11 10 9 10 11 12 13 14 15 15 16 18 19 20 20 20 20 19 18 17 16 15 13 12 10 9 9 9 9 9 9 9 9 10 11 14
10 7 5 6 7 8 10 11 12 13 14 15 16 17 18 19 19 19 19 18 17 16 15 13 11 9 8 7 6 5 5 5 5 6 6 7 10 12
2 2 3 4 6 8 9 10 11 13 14 14 15 17 17 19 19 19 19 19 18 17 15 13 12 9 8 7 6 5 3 2 2 2 4 6 8 11
2 2 3 5 6 7 9 10 12 13 14 15 16 17 18 19 20 20 20 20 19 18 17 15 14 13 11 10 9 7 6 4 3 3 4 5 7 10
5 5 6 7 8 9 10 12 13 14 15 16 17 18 19 20 21 21 22 22 21 20 19 19 18 17 15 14 12 11 10 9 8 6 6 7 8 11
7 8 8 9 10 11 12 13 14 15 15 16 18 19 20 21 22 23 23 23 23 23 22 21 21 20 19 18 16 15 15 13 12 11 10 10 11 13
9 10 10 11 12 13 14 15 15 16 16 17 18 20 21 22 23 24 24 24 24 24 24 23 23 23 22 21 19 18 18 17 15 14 14 14 14 14
11 11 12 13 14 14 15 16 17 17 18 18 19 20 21 22 23 24 24 24 24 24 24 25 25 25 24 23 21 20 19 19 18 17 17 16 16 16
12 13 13 14 15 15 16 17 18 19 19 20 21 22 22 23 24 25 25 24 23 23 24 25 26 25 24 23 22 22 22 22 21 19 19 19 18 19
13 13 13 14 15 16 17 18 19 20 21 22 23 23 24 24 24 25 25 25 24 24 24 24 25 24 24 23 22 23 23 23 23 21 20 20 20 20
Wind_Direction
291 290 290 289 289 289 289 289 288 288 288 288 287 287 287 287 286 286 285 284 283 281 280 279 278 276 275 273 272 270 268 266 263 261 259 256 254 251
290 290 289 289 289 289 289 289 289 289 289 289 289 288 288 288 287 287 286 285 283 282 281 280 279 277 276 274 273 271 269 266 263 260 258 255 252 249
290 290 290 290 290 290 290 291 291 291 291 290 290 290 289 289 289 288 287 286 285 284 283 281 279 277 275 274 272 271 269 267 264 262 259 255 252 249
291 290 290 291 291 291 292 292 292 293 293 293 292 292 292 291 291 290 289 289 287 286 283 280 278 276 274 273 272 271 270 268 266 263 260 257 253 249
291 291 292 292 292 293 293 294 295 295 296 295 295 294 294 293 293 292 292 291 289 287 284 281 279 277 276 274 273 271 270 268 266 264 260 257 253 249
293 293 293 294 295 295 296 297 297 298 298 298 298 298 297 296 296 295 295 293 291 289 286 284 281 279 277 275 274 272 270 268 266 263 260 257 253 248
294 294 295 296 297 298 299 299 300 300 300 301 301 300 300 299 299 299 298 296 294 292 290 287 285 282 279 278 276 274 272 269 267 264 260 257 253 248
296 296 297 299 300 300 301 301 301 302 303 303 304 303 302 302 302 302 300 299 297 295 293 290 287 284 282 280 278 276 273 269 267 264 260 256 252 247
297 298 300 301 302 302 302 303 304 304 305 306 307 307 307 307 307 306 305 303 301 299 297 294 290 287 284 282 279 277 273 269 267 264 260 256 251 245
298 300 301 302 302 303 304 305 307 308 311 313 313 313 313 313 312 311 310 309 307 305 302 298 294 291 287 285 281 278 273 269 266 263 260 256 251 244
299 300 301 302 303 304 306 308 311 314 317 318 319 320 321 320 319 318 317 316 313 311 308 303 298 294 291 288 285 279 274 269 265 263 260 255 248 241
299 300 300 301 303 306 309 314 317 320 322 326 329 330 330 330 328 327 324 321 318 315 313 310 304 298 292 288 286 281 276 271 266 264 260 253 244 236
299 300 301 303 305 310 316 321 324 327 329 334 337 338 338 337 336 334 332 329 327 324 321 317 313 306 297 290 287 282 278 273 267 264 258 247 237 228
298 299 301 306 314 321 327 331 334 337 340 343 345 346 347 346 344 343 341 339 336 335 332 328 323 319 310 300 295 288 280 275 268 262 253 239 226 217
295 297 309 322 331 336 340 344 346 349 351 352 353 354 355 355 354 354 353 352 350 349 348 346 343 338 334 330 325 314 293 282 273 259 241 224 210 203
289 328 345 351 354 355 358 360 0 1 3 4 5 5 6 6 5 6 6 6 6 7 10 12 12 14 17 17 14 9 351 318 275 230 210 197 191 191
101 68 45 30 23 19 20 19 17 15 15 17 17 17 17 16 16 18 20 22 25 28 31 35 37 40 42 40 39 42 46 55 84 129 152 166 172 176
89 76 61 49 42 39 36 32 31 30 30 30 29 29 29 29 29 31 33 36 39 41 44 46 48 50 51 51 51 56 60 66 78 93 113 135 146 158
85 76 67 60 56 51 45 41 40 41 42 40 39 39 38 37 38 39 40 43 46 47 49 52 54 55 56 57 59 62 68 72 77 82 95 113 128 140
84 77 73 69 62 56 49 47 48 48 47 46 44 43 43 43 43 43 44 48 50 52 54 57 59 60 61 61 61 65 69 72 75 81 91 105 117 128
83 80 78 72 64 59 55 54 53 52 50 48 47 46 46 46 46 46 47 50 53 56 58 60 61 61 61 62 63 66 69 74 78 84 91 99 110 120
85 84 80 73 67 64 60 58 57 56 54 52 51 51 50 50 50 49 51 53 55 57 58 59 60 61 63 65 66 68 70 74 79 85 92 100 108 116
87 85 81 75 71 68 65 63 62 59 56 55 54 53 53 53 53 53 53 54 55 57 58 60 61 63 64 66 68 70 73 76 78 82 88 96 104 114
Height
5736 5731 5726 5721 5716 5710 5704 5698 5693 5689 5684 5675 5669 5663 5657 5651 5645 5641 5636 5632 5628 5624 5620 5617 5614 5612 5610 5608 5606 5606 5605 5606 5607 5609 5612 5615 5620 5625
5720 5715 5710 5704 5699 5693 5688 5681 5675 5670 5666 5659 5651 5645 5639 5633 5627 5622 5617 5612 5608 5604 5600 5597 5594 5591 5589 5587 5586 5585 5584 5584 5585 5587 5589 5592 5597 5602
5704 5699 5694 5689 5683 5677 5671 5665 5659 5653 5648 5643 5634 5628 5621 5615 5609 5603 5598 5593 5589 5585 5582 5578 5575 5573 5571 5570 5569 5568 5567 5566 5567 5568 5569 5572 5576 5581
5689 5683 5678 5673 5667 5661 5656 5649 5643 5637 5631 5626 5619 5611 5604 5598 5592 5586 5581 5576 5572 5568 5565 5562 5560 5558 5557 5555 5554 5553 5552 5551 5551 5551 5553 5555 5557 5560
5673 5668 5663 5658 5652 5646 5641 5634 5628 5621 5615 5609 5603 5595 5588 5582 5576 5571 5566 5561 5557 5554 5551 5549 5547 5545 5544 5542 5541 5540 5539 5538 5537 5537 5537 5538 5540 5543
5658 5653 5648 5643 5638 5632 5626 5620 5613 5607 5600 5594 5587 5581 5575 5568 5563 5558 5554 5550 5546 5542 5540 5538 5536 5534 5532 5530 5528 5527 5526 5525 5524 5524 5524 5525 5526 5529
5644 5639 5635 5630 5624 5618 5612 5606 5600 5594 5587 5581 5575 5570 5564 5558 5553 5548 5544 5540 5536 5532 5530 5527 5524 5522 5520 5518 5516 5515 5514 5513 5512 5512 5512 5513 5514 5516
5631 5626 5621 5617 5611 5606 5600 5594 5588 5583 5577 5571 5566 5561 5555 5550 5545 5540 5536 5532 5528 5525 5520 5517 5514 5511 5509 5508 5506 5504 5503 5502 5501 5501 5501 5502 5503 5505
5618 5614 5609 5604 5599 5594 5588 5583 5578 5573 5568 5563 5558 5553 5549 5544 5539 5534 5529 5524 5520 5516 5512 5508 5505 5502 5500 5498 5496 5494 5493 5492 5492 5491 5492 5492 5493 5495
5607 5602 5598 5593 5588 5584 5579 5574 5570 5566 5561 5557 5553 5548 5543 5538 5533 5528 5523 5518 5513 5509 5505 5501 5497 5494 5491 5489 5487 5486 5485 5484 5484 5483 5484 5484 5485 5486
5596 5592 5588 5584 5580 5576 5572 5569 5565 5561 5557 5553 5548 5543 5538 5533 5528 5523 5517 5513 5508 5503 5498 5494 5490 5487 5485 5482 5480 5479 5478 5477 5477 5477 5477 5477 5478 5479
5586 5583 5580 5577 5574 5571 5568 5565 5561 5558 5554 5550 5545 5540 5535 5530 5524 5519 5513 5508 5503 5498 5493 5489 5485 5481 5479 5477 5475 5474 5473 5472 5472 5472 5472 5472 5473 5474
5578 5576 5573 5572 5569 5567 5565 5562 5559 5555 5552 5547 5543 5538 5533 5527 5522 5516 5510 5504 5499 5494 5489 5485 5481 5477 5475 5473 5472 5470 5469 5468 5468 5468 5467 5468 5469 5471
5572 5571 5569 5568 5567 5565 5563 5560 5557 5554 5550 5546 5541 5537 5531 5526 5520 5514 5508 5502 5496 5491 5486 5482 5478 5475 5472 5470 5469 5467 5466 5465 5465 5465 5465 5465 5466 5468
5568 5568 5567 5566 5565 5564 5562 5559 5556 5553 5549 5545 5541 5536 5531 5525 5519 5513 5507 5501 5496 5490 5485 5480 5477 5474 5471 5469 5467 5466 5465 5464 5463 5463 5463 5464 5465 5468
5567 5567 5567 5566 5565 5563 5561 5559 5556 5552 5549 5545 5541 5536 5531 5525 5519 5513 5507 5502 5496 5490 5485 5481 5477 5474 5472 5470 5468 5466 5465 5464 5463 5463 5463 5464 5465 5468
5567 5567 5567 5566 5565 5563 5561 5559 5556 5552 5549 5545 5541 5537 5532 5526 5521 5515 5509 5503 5498 5493 5488 5484 5480 5477 5474 5472 5470 5468 5466 5465 5464 5464 5464 5465 5466 5468
5568 5568 5567 5567 5565 5564 5562 5560 5557 5554 5550 5547 5543 5538 5534 5529 5523 5518 5512 5507 5502 5497 5492 5488 5484 5481 5478 5476 5474 5471 5469 5468 5467 5466 5466 5467 5469 5471
5569 5569 5569 5568 5567 5565 5563 5561 5558 5556 5552 5549 5545 5541 5537 5532 5527 5522 5517 5511 5507 5502 5498 5494 5490 5486 5484 5481 5479 5476 5474 5472 5471 5470 5470 5471 5472 5475
5571 5571 5571 5570 5569 5567 5565 5563 5561 5558 5555 5552 5548 5544 5540 5536 5531 5527 5522 5517 5512 5508 5504 5500 5496 5493 5490 5488 5485 5483 5480 5478 5477 5476 5476 5476 5478 5480
5574 5573 5573 5572 5571 5570 5568 5566 5564 5561 5559 5556 5552 5548 5544 5540 5536 5532 5527 5523 5519 5515 5511 5508 5503 5500 5497 5495 5492 5490 5487 5485 5483 5483 5482 5483 5485 5487
5577 5576 5576 5575 5574 5573 5572 5570 5568 5565 5562 5560 5556 5553 5549 5545 5541 5537 5533 5529 5526 5522 5518 5514 5511 5508 5505 5503 5500 5498 5495 5493 5491 5490 5490 5491 5492 5494
5580 5580 5579 5579 5578 5577 5575 5574 5572 5569 5567 5564 5561 5558 5554 5551 5547 5543 5540 5536 5532 5528 5525 5522 5518 5516 5513 5511 5508 5506 5503 5502 5500 5499 5499 5498 5499 5501